Theta_e
314 323 325 323 327 329 324 319 315 317 316 311 312 313 312 312 311 310 310 308 305 308 312 309 309 310 309 309 307 303 302 300 299 300 300 299 299 298 298 298 298 298 297 297 295 295 294 294 294 294 294 293 292 292 291 291 291 291 291 291 291 291 291 291 291 292 292 292 293 293 293 293 293 292 292 292 292 292 292 292 292 292 292 292 292 292
317 323 328 331 326 322 321 315 311 312 312 310 312 313 312 311 311 309 309 308 305 307 312 310 309 310 309 309 307 304 302 300 300 300 299 299 299 299 298 298 299 298 297 297 296 294 294 294 294 294 293 292 292 291 291 291 291 291 291 291 291 291 291 291 291 292 292 292 292 292 292 291 292 292 292 292 292 292 292 292 291 291 291 291 291 291
324 326 332 327 314 311 313 311 310 310 310 311 311 311 313 312 312 312 310 310 308 308 312 311 309 309 308 308 307 305 302 302 302 302 302 301 299 299 299 298 298 298 297 297 296 295 294 294 294 294 293 292 292 291 291 291 291 291 291 291 291 291 291 291 291 291 291 291 291 291 291 291 291 291 291 291 291 291 291 291 291 290 290 290 290 290
323 330 326 311 305 309 313 311 311 310 310 312 311 312 314 312 313 315 313 312 311 309 310 310 308 307 307 307 308 306 304 304 304 303 303 302 301 300 300 299 299 298 297 297 296 295 294 294 294 293 292 292 292 291 291 291 291 291 291 291 291 291 291 291 291 291 291 291 291 291 291 291 291 291 291 291 291 291 291 291 290 290 290 290 290 290
320 320 309 304 309 313 313 313 312 311 312 316 314 312 314 313 313 314 312 311 311 313 311 308 308 310 308 308 309 307 303 303 303 302 302 301 301 301 300 299 299 299 298 297 296 295 294 294 294 293 292 292 291 291 291 291 291 291 291 291 291 291 291 291 291 291 291 291 291 291 291 291 291 291 291 291 291 291 291 291 291 290 290 290 290 289
319 311 304 309 313 311 312 315 316 313 314 320 318 314 313 314 313 312 312 311 312 316 311 307 312 316 312 309 309 308 306 304 302 301 301 301 301 300 299 299 298 298 298 297 297 295 294 294 294 293 292 292 291 291 291 291 291 291 291 291 291 291 291 291 291 291 291 290 290 291 290 290 290 290 290 290 290 290 290 290 290 290 290 289 289 289
314 306 307 316 316 314 313 315 318 315 313 318 317 314 314 313 311 311 311 311 315 315 308 307 312 313 311 310 311 310 309 307 304 301 300 300 300 299 299 299 298 298 298 297 296 295 295 294 293 292 292 292 291 291 291 291 291 291 291 291 291 291 291 290 290 290 290 290 290 290 289 289 289 289 290 290 290 290 290 290 290 289 289 289 289 289
311 308 310 314 315 316 314 316 319 314 315 320 313 311 313 311 309 309 308 309 312 310 307 307 308 308 308 310 310 309 308 308 305 304 301 298 299 300 299 299 298 298 298 297 295 295 294 294 293 292 292 292 291 291 291 291 291 291 291 291 291 291 290 290 290 290 290 290 290 289 289 289 289 289 289 289 289 289 289 289 290 289 289 289 289 289
310 313 315 314 314 314 316 323 319 312 316 318 309 307 309 307 308 307 306 308 308 306 308 309 306 308 311 310 309 306 307 309 307 306 304 299 298 299 299 298 298 298 298 297 295 294 294 293 293 293 292 292 291 291 290 291 291 291 291 291 291 291 290 290 290 290 289 289 289 289 289 289 289 289 289 289 289 289 289 289 289 289 289 289 289 288
309 311 312 314 317 315 319 320 313 312 315 310 306 309 311 310 310 308 307 309 309 308 311 310 307 310 315 314 311 306 308 312 309 307 305 300 299 299 298 298 298 298 298 297 295 294 294 293 293 293 292 292 291 290 290 290 291 291 291 291 291 290 290 290 289 289 289 289 289 289 289 289 289 289 289 289 289 289 289 289 289 289 288 288 288 288
308 305 305 310 313 312 314 309 303 307 307 304 308 313 314 314 311 309 309 310 312 314 315 312 308 310 314 314 312 311 315 316 313 310 308 302 298 298 298 298 298 298 297 296 295 294 294 293 293 292 292 291 291 290 290 290 290 291 290 290 291 290 290 289 289 289 289 289 288 288 288 288 288 288 289 288 288 288 288 288 288 288 288 288 287 287
309 307 307 307 306 306 310 309 303 304 303 305 313 315 316 317 315 315 313 311 316 320 318 311 307 308 312 313 312 313 315 313 311 312 312 306 299 297 298 298 298 298 297 296 294 294 293 293 293 292 292 291 291 290 290 290 290 290 290 290 290 290 289 289 288 289 288 288 288 288 288 288 288 288 288 288 288 287 287 287 287 287 287 287 286 287
314 313 309 306 305 305 312 314 307 308 308 309 313 315 319 320 320 321 317 314 318 319 312 306 306 308 309 311 310 310 312 310 307 306 308 305 299 297 299 298 297 297 296 295 294 294 293 293 293 292 292 291 291 291 290 290 290 290 290 289 290 289 289 288 288 288 288 288 288 288 288 288 288 288 288 287 287 287 286 286 286 286 286 286 286 286
320 317 309 308 308 306 310 313 312 315 312 308 311 317 322 321 321 323 319 317 318 317 308 302 306 310 310 311 311 309 310 308 304 302 302 302 300 300 300 298 297 296 296 295 294 293 293 293 293 292 292 291 291 291 291 290 290 290 290 289 289 289 288 288 288 288 288 288 288 288 288 288 288 287 287 287 287 286 286 285 285 285 285 285 285 286
320 319 314 313 312 308 308 310 316 320 312 307 310 315 319 322 323 323 322 320 317 316 310 303 308 314 313 313 311 305 302 300 300 300 299 300 300 301 300 298 296 295 295 294 294 294 293 293 293 292 292 291 291 291 290 290 290 290 289 289 289 289 288 288 288 288 288 288 288 287 287 287 287 287 287 287 286 285 285 285 284 284 284 285 285 286
315 318 315 309 306 306 307 306 309 317 314 307 308 312 315 319 320 318 318 317 312 312 311 307 310 313 310 309 307 301 297 297 296 296 296 298 299 299 298 296 295 295 294 294 293 293 293 293 292 292 291 291 291 291 290 290 290 290 289 289 288 288 288 288 288 288 288 287 287 287 287 287 287 287 286 286 286 285 284 284 284 284 284 285 285 286
314 317 312 304 304 304 303 303 303 310 315 309 307 313 312 310 314 317 315 311 308 310 313 311 310 310 310 309 305 301 300 299 298 295 294 296 297 297 296 295 294 294 294 294 293 293 293 293 292 292 291 291 291 291 290 290 290 289 289 288 288 288 288 288 288 288 287 287 287 287 287 287 286 286 286 285 285 284 284 283 283 284 284 285 285 286
314 316 311 306 310 305 298 301 302 302 308 312 312 312 307 305 310 314 314 312 308 310 313 312 310 310 311 310 304 300 301 303 302 297 293 293 294 294 294 294 294 294 293 294 293 293 293 292 292 291 291 291 291 291 291 290 290 289 289 288 288 288 288 288 288 288 287 287 287 287 287 287 286 286 285 285 284 284 283 283 283 284 284 285 285 286
313 314 312 305 307 304 298 303 307 302 301 307 309 306 305 310 312 310 311 313 312 312 313 313 312 311 312 313 310 305 304 306 304 297 294 295 293 292 293 293 293 293 293 293 293 293 292 292 292 291 291 291 291 291 290 290 289 289 289 288 288 288 288 288 287 287 287 287 287 287 286 286 286 285 285 284 284 283 283 283 283 284 284 285 285 285
311 313 315 304 301 304 303 307 313 309 301 301 302 302 304 310 311 310 310 311 314 313 312 314 313 311 313 317 318 312 308 309 305 297 295 296 293 292 293 293 293 293 293 293 293 293 292 292 292 291 291 291 291 291 290 289 289 289 288 288 288 288 288 288 287 287 287 287 287 286 286 286 285 285 284 283 283 283 283 283 283 284 285 285 285 284
310 313 315 307 301 305 307 308 311 312 307 304 305 304 303 304 307 310 308 307 311 312 311 313 313 312 313 315 317 313 310 309 306 300 296 294 293 294 293 293 293 293 293 293 293 292 292 292 291 291 291 291 291 290 290 289 289 289 288 288 288 288 288 287 287 287 287 287 286 286 286 286 285 284 284 283 283 282 283 283 284 284 285 285 284 283
312 314 315 311 306 307 310 308 306 309 310 308 307 307 305 304 306 309 308 306 307 309 311 313 312 311 311 311 312 313 312 309 304 300 297 294 293 294 293 294 294 293 293 293 293 293 292 292 291 291 291 291 290 290 290 289 289 288 288 288 288 288 287 287 287 287 286 286 286 286 285 285 285 284 283 283 283 282 283 283 284 284 284 284 283 282
311 313 313 312 310 308 306 304 300 302 305 306 306 307 306 305 306 310 311 309 306 306 308 310 310 311 310 309 310 310 309 305 298 296 297 294 293 294 293 294 294 293 293 293 292 292 292 291 291 291 291 291 290 290 289 289 288 288 288 288 288 287 287 287 287 286 286 286 286 285 285 285 284 284 283 283 283 283 283 284 284 284 284 283 282 280
308 312 312 312 313 309 304 302 300 300 302 304 305 305 305 305 306 308 309 310 309 308 307 307 309 310 307 305 305 301 299 298 294 294 296 294 293 294 293 293 293 292 292 293 293 292 291 291 291 291 291 290 290 289 289 289 289 288 288 287 287 287 287 287 286 286 286 286 285 285 285 284 284 283 283 283 283 283 283 284 284 284 283 282 280 278
310 314 313 312 315 314 308 306 306 304 302 304 305 304 304 305 306 307 306 307 309 308 307 307 309 310 307 304 302 299 298 298 294 293 295 294 293 293 293 293 292 292 292 292 292 292 291 291 291 291 290 290 289 289 289 289 288 288 287 287 287 287 287 287 286 286 285 285 285 285 284 284 284 283 283 283 283 283 284 284 284 283 282 281 279 278
312 315 313 311 313 314 312 312 313 309 303 302 304 303 303 304 305 306 307 307 308 308 307 308 309 310 308 306 304 301 302 300 295 293 293 293 294 293 293 293 292 292 293 292 292 291 291 291 291 290 290 289 289 289 289 288 288 287 287 287 287 287 287 286 286 286 285 285 285 284 284 284 283 283 283 282 283 283 283 283 283 283 281 280 279 278
315 315 311 311 313 312 311 311 313 310 306 305 305 303 303 304 304 305 307 308 309 308 307 308 309 309 309 307 306 305 303 300 298 296 293 292 293 293 293 293 292 292 292 292 292 291 291 291 290 290 290 290 289 289 288 288 287 287 287 287 287 287 286 286 286 285 285 285 284 284 284 283 283 282 282 282 282 283 283 283 282 281 280 279 278 277
316 314 310 311 311 311 312 311 311 311 310 309 308 305 302 302 303 305 307 307 309 309 309 309 308 309 309 308 308 308 306 302 299 296 293 292 294 294 293 293 292 291 292 292 291 291 291 291 290 290 290 289 289 288 288 287 287 287 287 287 287 286 286 286 285 285 285 285 284 284 283 282 282 282 282 282 282 282 282 282 282 280 280 279 277 276
313 313 311 311 310 309 310 310 311 311 310 309 310 308 305 301 302 304 305 306 307 309 309 309 309 310 309 308 308 308 308 306 301 298 296 295 295 293 292 291 290 291 291 291 291 291 291 291 290 290 289 289 289 288 287 287 287 287 287 287 286 286 286 286 285 285 285 284 284 283 282 281 281 281 281 281 282 282 282 282 281 280 280 278 277 275
309 311 311 311 310 310 309 309 309 309 309 309 309 309 307 303 302 303 304 305 306 307 308 308 308 308 308 308 308 307 306 306 303 299 297 295 293 292 291 291 290 291 291 291 291 291 291 291 290 289 289 289 288 287 287 287 287 287 287 286 286 286 286 286 285 285 285 284 283 282 281 281 280 280 281 281 281 282 282 282 281 280 280 279 277 275
306 311 312 310 310 311 309 309 309 308 308 308 308 308 308 306 304 304 303 303 304 305 305 305 306 307 306 306 306 305 304 304 302 298 295 293 293 292 291 290 291 291 291 291 291 291 291 290 290 289 289 288 287 287 287 287 287 287 286 286 286 286 286 286 285 285 284 283 282 281 280 280 280 280 281 281 281 281 282 282 281 280 280 279 277 275
305 309 312 310 310 311 310 310 310 308 307 307 308 308 307 307 307 307 306 305 305 305 305 305 305 305 305 305 305 304 304 304 302 298 294 293 293 292 291 291 291 291 291 291 291 291 290 290 289 289 288 287 287 287 287 287 287 286 286 286 287 286 286 286 285 285 284 283 282 280 280 279 280 280 281 281 281 281 282 282 281 280 279 279 277 275
305 308 310 310 310 311 310 309 308 308 308 309 309 309 308 307 307 307 307 307 306 306 306 307 307 306 306 306 306 306 305 303 302 299 295 294 293 292 292 292 292 292 291 291 291 291 290 290 289 288 287 287 287 287 287 287 286 286 286 286 287 286 286 286 285 285 284 282 281 280 279 279 279 280 280 281 281 281 282 281 281 280 278 278 277 275
305 307 308 309 311 310 307 305 306 308 310 311 311 311 311 309 308 307 308 307 307 307 306 307 307 307 307 307 307 307 306 302 300 299 299 298 295 293 293 293 292 292 291 291 291 291 290 289 288 287 287 287 287 287 287 287 286 286 286 286 286 286 286 285 285 284 283 281 280 279 279 279 279 280 280 280 280 281 281 281 280 279 277 276 276 276
304 305 307 309 310 308 304 304 308 310 311 311 311 311 311 311 309 308 307 307 307 306 306 306 307 306 306 307 306 305 304 302 300 300 300 300 298 297 295 293 292 291 291 291 291 290 290 289 288 287 287 287 287 287 287 286 286 286 286 286 286 286 285 285 285 284 282 281 279 278 278 278 279 279 280 280 280 281 281 280 278 277 276 275 275 275
306 304 306 309 308 306 305 307 310 312 310 310 310 308 306 307 306 305 307 307 306 305 305 305 305 306 306 305 305 303 302 300 298 298 298 299 298 298 297 295 293 292 292 291 291 290 289 288 287 287 287 287 287 287 286 286 286 286 286 286 286 285 285 285 284 283 281 280 278 278 278 278 279 279 279 279 280 280 280 279 277 276 275 274 274 274
306 306 306 308 308 308 309 309 310 310 310 310 311 308 306 305 305 306 308 308 307 306 305 304 304 304 304 304 302 299 297 296 296 296 297 297 297 297 296 296 295 293 292 291 291 290 289 288 287 287 287 287 287 286 286 286 286 287 286 286 286 285 285 284 283 282 280 279 277 277 277 278 278 279 279 279 279 280 279 278 276 274 273 273 274 273
305 307 307 308 309 309 310 310 311 311 311 311 309 307 305 304 304 306 307 307 307 307 305 305 305 303 304 303 298 294 295 297 298 297 296 296 296 295 294 294 294 292 291 291 290 289 288 287 287 287 287 287 286 286 286 287 287 286 286 286 285 285 285 284 282 280 279 278 277 277 277 277 278 278 278 278 278 279 278 277 275 274 273 273 273 273
304 306 307 308 309 310 310 311 311 312 313 311 307 303 300 299 301 305 306 306 308 307 304 303 305 304 303 301 295 293 297 299 300 299 297 295 295 293 292 292 292 291 291 290 290 289 288 287 287 287 287 286 286 286 286 287 287 286 286 286 285 285 284 283 281 279 278 277 276 276 276 277 277 277 277 277 278 277 277 276 275 273 273 273 272 273
303 304 306 306 308 310 310 310 311 311 311 309 304 299 297 298 302 307 309 309 310 309 303 301 304 304 300 295 292 295 299 300 299 299 297 295 294 293 292 292 291 291 290 289 289 288 287 287 287 287 286 286 286 287 287 287 286 286 286 285 285 284 283 282 280 278 277 276 276 276 276 276 277 277 277 277 277 277 276 275 274 273 273 272 272 272
302 303 304 305 307 309 309 311 310 310 310 306 300 296 296 299 305 310 311 309 310 308 301 298 300 300 296 292 292 296 298 297 297 297 295 294 293 291 291 292 291 291 290 289 288 288 287 287 286 286 286 286 286 287 287 287 286 286 286 285 285 284 282 280 278 277 276 276 275 275 276 276 277 277 276 276 276 276 276 275 274 273 272 272 272 271
303 303 303 305 306 307 308 310 309 310 309 303 297 295 298 303 308 309 307 305 306 304 299 297 299 298 296 293 294 296 296 295 295 295 294 293 292 291 291 291 290 290 289 288 288 287 287 286 286 286 286 286 287 287 287 286 286 286 285 285 284 283 281 279 277 276 276 275 275 275 275 276 276 276 276 275 275 276 276 275 275 274 272 271 271 270
305 304 303 304 306 306 307 308 308 310 308 300 296 297 300 305 310 308 304 303 303 302 300 298 298 298 297 295 294 295 295 294 294 294 293 292 292 291 291 290 290 290 289 288 287 287 286 286 286 286 286 287 287 287 286 286 286 286 285 284 283 282 280 278 277 276 275 275 275 275 275 275 276 276 276 275 275 275 276 275 275 274 272 270 269 268
307 306 305 306 306 306 306 306 309 310 305 299 300 302 301 303 307 307 305 303 300 300 300 298 297 299 298 297 295 294 294 293 293 293 292 291 291 291 290 290 290 289 289 288 287 286 286 286 286 286 287 287 287 287 286 286 286 285 285 284 282 280 278 277 276 275 275 274 274 274 275 275 275 275 275 275 275 275 275 275 274 274 273 271 269 268
309 309 309 309 307 307 308 308 308 307 301 298 302 305 302 302 304 304 305 303 299 299 300 299 299 299 299 297 296 294 293 293 293 292 292 291 290 290 290 289 289 289 288 287 287 286 286 286 286 287 287 287 286 286 286 286 285 285 284 283 281 279 277 276 275 274 274 274 274 274 274 275 274 275 275 275 274 274 275 274 274 274 272 271 270 268
309 308 309 310 308 306 307 308 306 304 300 298 300 303 302 302 302 301 302 302 301 301 301 300 300 300 298 296 295 293 293 293 292 292 292 291 290 290 290 289 289 288 288 287 286 286 286 286 286 287 287 286 286 286 286 286 285 285 284 282 280 278 276 275 274 274 274 274 274 274 274 274 274 274 275 275 274 274 274 274 274 273 271 270 270 269
308 306 306 308 309 308 309 310 308 306 303 300 299 300 301 301 301 300 301 302 302 302 301 301 301 300 298 296 295 294 293 293 292 291 290 290 290 290 290 289 289 288 287 286 286 286 286 286 287 287 286 286 286 286 285 285 285 284 283 281 278 277 276 275 274 274 274 273 273 274 274 274 274 274 274 275 275 274 273 273 274 273 271 270 269 269
308 306 305 306 308 308 310 312 309 304 304 303 300 299 300 300 300 300 301 301 301 301 301 301 300 299 298 297 296 295 293 292 292 291 290 290 290 290 290 289 289 288 287 286 285 286 286 286 286 286 286 286 286 285 285 285 284 283 281 279 277 276 275 274 273 273 273 273 273 273 273 273 273 273 274 274 274 274 273 273 273 273 272 270 269 268
307 307 306 306 307 307 309 311 307 303 303 304 301 300 301 302 301 300 299 299 299 299 300 299 298 298 298 297 295 294 293 292 292 292 291 290 290 290 289 289 289 288 287 286 285 286 286 286 286 286 286 285 285 285 285 284 284 282 280 278 276 275 274 273 273 273 273 273 273 273 273 273 273 273 273 273 273 274 274 272 272 272 272 272 270 269
307 308 308 307 307 308 308 309 309 307 307 306 303 302 303 303 301 299 298 297 298 299 299 298 297 297 297 296 295 294 293 292 292 292 291 291 290 290 290 289 288 287 286 286 286 285 285 286 286 285 285 285 285 285 284 284 282 280 278 277 275 274 274 273 273 273 273 273 273 273 273 272 272 272 272 272 272 273 273 273 273 272 272 272 272 271
309 311 310 308 309 310 310 309 309 308 308 309 307 306 304 303 300 298 298 298 298 299 299 298 297 295 294 295 295 294 294 293 292 291 291 291 291 290 290 289 289 288 287 286 286 286 285 285 285 285 285 285 285 284 284 283 281 279 277 276 275 274 273 273 272 272 272 272 272 272 272 272 272 272 272 272 272 272 273 274 274 273 273 272 273 273
Wind_Speed
4 2 1 4 5 7 7 6 6 5 5 4 3 4 5 5 8 8 4 4 1 2 8 8 8 11 15 17 13 15 23 24 25 26 25 28 32 35 38 38 37 35 32 28 26 24 21 17 14 11 10 6 4 4 6 8 10 12 13 15 17 18 20 21 23 26 29 31 32 33 34 34 34 34 35 35 35 35 36 36 37 38 39 40 42 43
4 1 5 8 9 8 6 6 5 3 3 3 3 4 5 5 8 9 4 5 2 3 6 5 6 11 13 17 16 11 15 19 26 28 27 31 34 36 39 39 39 35 30 30 30 26 23 19 15 12 10 6 4 4 6 9 11 12 14 16 18 19 21 23 25 27 29 30 32 33 34 35 35 35 36 36 36 36 37 38 38 39 40 41 43 44
4 3 9 8 6 5 4 5 6 3 3 3 2 2 4 4 4 8 4 5 3 2 6 6 6 10 12 16 19 12 15 22 33 36 36 36 36 38 39 39 39 36 33 33 34 30 25 21 16 13 11 6 4 4 7 9 12 13 16 17 19 21 22 24 26 28 29 30 31 32 33 35 36 36 36 37 37 38 39 40 40 42 43 44 45 45
1 6 7 5 7 8 2 2 4 1 1 4 3 2 5 4 1 4 4 5 4 2 6 9 9 9 10 15 19 16 19 26 32 36 37 36 36 40 41 41 42 41 38 37 36 32 26 21 17 14 11 6 4 4 7 10 12 14 17 19 20 22 24 25 27 28 29 30 30 32 33 34 36 36 37 38 39 39 40 41 42 43 44 45 47 48
6 6 3 7 6 6 3 1 2 2 3 4 5 6 6 5 5 6 4 6 6 4 4 9 9 7 7 12 13 8 9 19 24 25 28 33 35 35 36 38 41 42 41 39 37 34 27 22 19 15 10 6 4 4 8 10 13 15 17 19 21 22 24 26 27 28 29 30 32 33 35 35 36 37 38 39 40 40 41 42 42 43 44 45 47 49
7 4 5 6 3 4 5 3 4 6 3 5 5 9 9 8 7 5 5 6 5 4 3 7 7 6 2 6 10 5 3 10 13 14 22 30 31 31 34 37 39 40 41 39 36 33 28 23 20 15 10 7 4 4 8 10 13 15 17 19 21 23 24 26 27 28 29 31 33 35 36 37 38 39 39 39 41 42 42 43 44 44 44 45 47 48
3 0 4 6 5 4 4 4 5 7 3 4 4 6 7 4 2 2 4 4 1 3 2 4 2 8 3 3 10 9 7 10 9 9 18 25 28 32 38 39 39 40 41 37 33 32 29 25 21 15 10 7 4 5 7 10 12 15 17 19 21 23 25 26 27 28 29 31 33 34 36 37 39 40 40 40 41 42 43 44 45 45 45 45 46 47
3 2 4 5 5 5 4 5 6 8 6 3 4 4 5 4 2 2 3 1 3 3 4 3 4 8 8 6 9 8 8 13 12 11 14 19 27 35 38 37 38 41 42 38 33 32 30 26 21 15 10 7 4 5 7 10 12 15 17 19 21 23 25 26 28 28 29 31 33 34 35 36 38 39 41 41 42 42 43 45 46 46 47 46 46 48
3 4 5 5 4 3 6 6 7 10 5 5 4 4 5 4 3 3 3 1 2 3 6 5 7 4 9 5 3 2 4 12 14 15 14 16 27 34 35 35 37 40 42 39 35 33 31 26 20 15 10 7 4 5 7 10 12 15 18 20 21 23 25 27 27 28 29 31 33 34 36 37 38 39 41 42 43 43 44 45 47 47 48 48 48 48
1 3 6 7 5 6 6 3 6 9 4 3 5 4 4 5 4 3 3 1 2 2 9 7 7 4 8 4 2 2 3 10 12 12 11 15 26 31 31 34 36 39 41 40 37 34 31 26 19 15 10 7 4 5 8 10 13 15 18 20 22 23 25 27 27 28 30 31 32 34 35 37 38 40 41 43 44 44 44 46 47 49 49 49 49 49
2 1 1 4 5 5 4 2 1 4 3 4 5 4 5 5 4 4 2 3 3 4 10 8 11 8 6 3 6 4 5 7 7 8 8 11 19 25 29 34 37 39 41 40 36 33 29 24 18 14 10 6 5 5 8 10 13 16 18 20 22 23 25 26 27 29 30 31 32 34 35 37 38 40 42 43 45 45 45 47 48 50 50 50 50 50
4 1 2 3 4 5 7 4 2 2 3 4 4 4 4 4 4 4 4 4 1 6 7 4 8 9 8 6 5 5 6 6 6 7 8 8 14 23 30 35 37 40 42 40 36 33 29 23 19 14 10 7 5 6 8 11 13 16 18 20 22 23 24 26 27 29 30 31 32 34 35 37 38 39 41 43 44 45 46 48 49 50 51 51 51 50
3 4 3 2 2 6 6 4 2 4 4 4 4 4 3 4 4 3 3 1 3 7 4 1 4 5 11 10 9 10 11 10 9 10 12 10 13 23 30 33 36 40 42 41 38 34 29 24 19 14 10 7 5 6 8 11 13 16 18 20 22 23 24 25 27 29 30 31 32 34 35 37 38 39 40 42 43 45 46 47 49 50 51 51 51 51
4 5 1 1 2 8 9 5 2 2 1 5 4 4 3 1 1 4 4 3 5 6 3 4 3 5 9 8 12 16 16 15 13 15 19 16 14 21 27 32 36 39 42 41 39 35 30 24 19 14 11 8 6 7 9 11 13 16 18 20 22 23 24 26 28 29 30 32 33 34 35 37 38 39 40 41 43 44 46 47 48 50 49 50 51 52
3 6 3 5 2 8 10 6 5 5 4 4 4 4 5 5 4 4 4 4 6 7 4 3 3 4 4 2 7 10 11 12 14 17 18 17 16 19 23 30 35 39 42 41 38 35 29 23 18 14 11 8 7 7 9 11 13 16 18 21 22 23 25 27 28 29 31 32 33 34 35 36 37 38 40 41 43 44 46 47 48 49 49 48 50 51
3 7 6 2 1 7 7 3 5 6 2 2 3 4 3 4 5 3 4 4 1 6 6 3 4 6 4 4 6 4 6 7 9 12 11 12 16 18 23 30 34 38 41 40 38 34 28 23 18 15 11 8 7 7 9 11 14 17 19 21 22 24 25 27 29 30 32 33 34 35 36 36 37 38 40 42 43 44 45 46 47 49 48 48 49 50
2 6 4 2 1 3 3 1 2 2 3 2 2 3 4 4 5 2 4 2 4 3 6 3 6 8 5 7 6 4 3 6 6 7 6 11 15 19 25 30 34 39 42 41 39 33 27 22 18 15 11 9 8 8 10 12 15 17 19 21 23 24 26 27 29 31 32 33 34 35 36 36 37 39 40 42 44 45 46 46 47 48 48 48 49 50
3 5 4 2 2 2 1 1 2 2 4 5 3 5 3 2 4 3 1 3 3 3 6 4 9 12 6 6 4 2 2 9 8 5 4 8 13 20 25 29 34 39 41 41 37 31 26 22 18 15 11 9 8 9 11 13 15 17 19 21 23 25 27 29 30 31 32 33 35 36 36 37 38 39 41 42 44 46 47 47 47 47 48 49 49 50
3 3 4 1 1 2 3 1 1 2 3 5 3 2 2 3 1 2 2 2 1 3 7 5 8 14 9 6 7 4 7 10 9 5 5 7 14 20 24 27 32 36 39 39 35 30 27 23 19 15 12 10 9 10 12 13 15 17 19 21 23 25 27 29 31 32 33 34 35 36 37 38 38 39 41 43 45 46 47 47 47 48 49 50 50 50
3 2 4 1 2 2 2 1 4 2 2 3 0 2 1 3 3 3 3 3 3 3 7 5 8 14 9 6 8 8 10 10 8 7 8 11 17 24 26 29 33 38 41 41 36 31 27 23 18 15 12 10 10 10 11 13 15 17 19 21 23 25 27 29 30 32 33 34 36 37 38 38 39 40 42 43 45 46 46 47 47 48 50 50 51 49
3 2 4 2 3 1 2 4 7 8 5 3 2 2 2 1 2 1 2 2 4 4 5 3 8 15 6 5 7 8 8 10 10 10 10 13 21 26 28 32 36 40 42 41 37 32 27 22 18 15 12 10 10 10 11 14 16 17 18 21 23 25 27 29 30 31 33 35 36 37 38 39 40 41 43 44 45 46 47 47 47 49 50 51 51 50
3 3 4 1 1 4 5 4 4 7 7 6 6 6 7 5 3 1 4 3 3 4 5 3 8 17 7 4 5 6 7 8 10 11 10 15 24 27 29 34 38 41 43 41 36 31 26 22 18 15 12 11 10 11 12 14 15 16 19 21 23 25 26 28 30 32 34 35 37 38 39 40 41 42 44 45 46 47 47 48 48 49 50 52 52 50
3 3 3 4 5 6 5 3 1 2 3 3 5 5 5 6 6 5 7 5 2 4 4 3 7 17 6 4 4 5 5 7 10 13 12 16 25 28 31 35 36 39 41 38 33 29 25 21 18 15 12 11 10 10 11 13 15 17 19 20 22 24 25 28 30 32 35 36 37 38 39 40 42 43 44 45 46 47 48 48 49 50 50 51 51 50
3 2 3 5 4 2 3 4 3 3 1 3 6 5 6 8 8 7 6 3 2 5 4 3 10 17 4 3 2 2 2 5 10 16 17 17 22 27 30 34 36 38 38 35 32 28 25 21 18 15 13 10 9 10 11 13 15 16 17 19 21 24 25 28 31 33 35 37 38 39 39 41 42 43 45 46 47 48 48 49 50 50 50 50 50 49
5 2 3 4 5 4 3 3 3 3 1 5 5 5 9 11 8 3 1 1 4 9 8 5 14 17 5 3 2 3 3 5 7 16 20 18 20 26 30 33 36 37 36 34 32 28 25 22 18 15 12 10 9 10 12 14 15 15 16 18 21 24 26 29 31 33 36 37 38 39 40 41 42 44 45 46 47 47 48 49 50 50 49 50 49 49
8 3 5 6 7 8 7 5 4 3 3 3 3 7 12 14 12 6 2 5 10 10 10 10 17 19 11 2 1 5 6 6 8 12 17 19 21 25 29 33 36 38 38 37 33 29 26 22 18 15 12 10 10 11 12 12 13 14 16 18 21 24 27 30 32 34 36 38 39 40 41 42 43 44 45 46 47 47 48 48 49 49 48 48 49 49
4 2 8 11 12 13 14 12 6 6 4 5 7 11 14 15 16 10 5 9 9 4 7 18 21 21 24 16 8 11 11 8 9 10 13 19 23 25 29 34 37 39 39 38 34 30 26 21 18 15 12 11 10 11 11 11 12 13 15 18 21 24 28 30 33 35 37 39 40 41 42 42 44 45 45 46 47 47 47 47 47 48 47 47 48 47
3 4 13 16 17 18 19 17 7 7 7 10 10 12 13 13 14 13 14 17 9 3 10 25 23 19 28 26 17 17 16 10 8 10 15 22 25 28 31 32 34 36 37 36 34 30 27 22 18 15 12 10 9 10 10 10 11 14 16 19 22 25 28 31 34 36 37 39 40 41 42 42 43 44 45 46 46 46 46 46 46 46 47 47 47 46
3 9 16 14 17 20 20 20 12 7 10 11 12 15 13 13 15 19 23 23 13 9 19 27 24 23 27 27 22 19 15 11 13 18 22 25 26 27 28 29 32 36 38 38 35 32 27 22 18 14 11 10 10 9 9 9 11 14 16 19 22 26 29 32 35 37 38 39 40 41 42 42 43 44 44 45 46 46 46 46 46 46 46 46 46 46
4 10 15 11 12 17 20 19 12 11 13 12 19 24 14 14 19 22 23 22 19 21 26 27 27 29 28 26 25 23 19 17 18 20 22 23 24 26 28 30 34 39 41 40 37 32 27 21 17 14 11 10 10 9 8 9 11 14 17 20 23 27 30 33 35 37 39 40 40 41 41 42 42 43 44 45 45 45 46 46 46 46 46 46 46 45
5 8 8 6 8 15 18 14 9 11 13 13 24 29 17 15 20 20 19 20 19 22 27 27 25 26 27 26 23 23 23 19 16 15 19 23 26 28 30 33 37 40 41 40 36 31 25 21 17 13 11 10 10 9 7 9 11 14 17 20 24 27 30 33 36 38 39 40 41 41 41 42 42 43 43 44 44 45 46 46 47 47 47 47 46 45
6 4 1 3 6 14 12 6 5 5 4 11 26 33 24 18 19 19 19 19 18 20 24 23 18 20 24 23 18 15 14 13 13 14 18 23 28 31 32 34 39 41 40 39 36 30 25 21 17 13 12 11 9 8 7 9 11 14 18 21 24 28 31 33 36 38 40 40 40 41 41 41 42 43 44 44 45 45 46 47 48 48 48 48 47 46
7 6 3 4 7 12 5 4 4 4 3 11 22 25 23 19 18 20 21 21 22 20 17 16 17 20 22 18 15 13 11 10 13 17 20 23 28 32 35 38 41 42 41 40 36 31 25 20 16 13 12 11 9 7 8 10 12 15 19 22 25 28 31 33 36 38 40 40 40 40 41 41 42 43 44 44 45 46 47 49 49 49 49 48 48 46
7 9 6 5 6 8 3 6 5 2 7 13 10 8 14 18 21 24 24 25 24 20 17 19 20 22 21 16 15 17 14 13 17 24 27 28 30 33 35 39 40 39 40 39 34 29 25 19 16 14 13 11 8 7 8 10 12 15 19 22 25 28 31 34 36 38 40 40 40 40 40 41 42 43 44 44 45 46 47 49 50 50 49 48 48 47
9 9 5 4 3 3 3 5 2 10 12 8 4 2 10 14 17 21 22 25 25 20 19 22 23 25 25 19 18 21 20 19 21 25 28 30 32 34 35 37 38 37 38 37 34 29 24 19 17 15 13 11 8 7 8 9 12 16 19 22 26 28 31 34 35 38 39 39 39 39 39 41 42 42 44 44 45 46 47 49 50 50 50 49 48 47
10 8 4 3 3 1 2 5 9 11 9 13 12 5 4 2 4 6 12 22 23 17 16 20 24 27 25 21 23 23 19 17 17 20 25 29 31 34 36 37 38 39 40 38 35 29 23 19 17 15 13 10 8 7 8 9 12 16 19 22 25 28 31 34 35 37 38 38 38 38 38 40 41 42 43 44 45 46 48 49 50 50 49 49 48 47
10 8 5 5 6 6 7 9 11 9 13 22 20 7 7 6 6 7 8 20 20 12 15 19 22 23 22 20 19 14 7 5 7 14 25 30 31 34 35 35 37 39 39 36 31 26 21 19 18 15 13 10 7 7 8 10 13 17 20 23 26 28 31 34 35 36 37 37 36 37 37 39 40 41 42 43 45 46 48 49 50 49 47 47 47 46
11 10 9 9 8 8 8 9 9 7 12 20 13 4 8 10 9 9 5 15 17 10 14 16 17 20 20 15 8 7 7 3 5 12 24 30 31 32 31 31 33 36 36 33 29 25 21 19 18 15 12 10 8 7 8 11 14 17 20 23 26 29 32 33 35 35 36 35 35 36 36 37 38 40 41 42 44 45 47 48 48 47 46 44 44 44
12 9 9 8 7 8 8 10 10 10 15 17 6 4 7 12 12 8 2 12 15 9 15 16 16 18 15 8 10 11 7 4 7 12 21 27 29 30 30 30 31 33 34 31 26 23 21 19 18 15 12 9 8 7 9 12 15 18 21 24 27 30 32 33 34 34 34 34 34 34 35 36 36 37 39 41 42 43 45 47 47 46 44 42 42 41
10 8 7 8 10 12 11 11 10 7 11 9 4 5 10 18 16 8 3 13 9 8 16 18 15 15 11 12 14 10 7 9 10 11 17 23 26 29 30 32 35 36 33 29 25 22 21 19 17 15 12 9 7 8 10 13 16 18 21 24 27 30 32 33 33 33 32 32 33 33 33 34 35 36 37 39 40 42 43 44 46 46 43 42 41 40
5 6 7 9 13 15 14 13 8 6 9 6 9 13 16 15 10 1 11 14 4 7 15 19 16 15 16 19 15 12 15 18 12 8 13 22 27 30 32 33 36 35 31 28 26 23 22 20 18 14 11 8 8 9 11 13 16 19 22 25 27 30 31 32 31 31 31 31 31 31 31 32 33 34 36 37 38 40 41 43 45 45 43 42 41 40
4 3 5 9 10 11 12 10 5 8 11 9 16 21 20 10 3 10 9 5 6 10 15 19 21 21 23 26 25 21 21 20 14 9 17 27 32 34 36 36 35 33 30 28 26 24 23 20 17 14 11 9 9 10 11 13 16 19 22 25 27 29 30 30 29 29 29 29 29 30 30 31 32 33 35 35 37 39 41 42 43 44 43 42 41 42
8 5 4 7 7 5 7 6 5 9 9 20 22 12 10 8 14 15 5 3 10 16 18 21 24 26 27 29 30 25 20 17 16 16 23 31 35 37 38 37 35 33 31 28 26 25 23 20 16 13 10 9 9 10 11 13 16 19 22 25 27 28 28 27 27 27 27 28 28 29 29 30 31 33 34 34 36 38 40 42 43 43 43 42 42 43
7 7 6 7 7 5 5 10 11 9 9 29 26 10 15 29 34 24 13 10 12 17 22 24 25 29 31 31 30 27 22 20 21 23 28 35 38 38 38 37 35 33 31 28 26 25 22 19 16 13 11 10 9 10 11 13 16 19 22 25 26 26 26 25 25 25 25 26 27 27 28 29 31 32 33 34 35 36 39 41 42 43 43 42 42 43
12 15 8 5 8 9 8 12 11 4 12 32 34 21 22 40 45 30 18 17 18 21 26 27 27 30 32 32 31 30 27 25 26 28 32 37 40 40 40 38 35 32 30 28 27 25 22 19 16 13 11 10 9 10 11 13 16 19 22 24 25 24 24 23 22 23 24 25 26 27 28 29 30 31 32 34 34 35 37 40 42 42 42 42 41 43
9 10 3 1 5 7 9 13 10 4 10 29 40 32 22 29 37 30 23 23 25 27 29 29 30 31 32 33 32 31 31 30 30 32 34 38 41 42 40 38 35 32 29 29 28 25 22 19 17 14 12 10 9 9 11 13 16 19 21 23 23 22 22 21 21 22 23 24 25 26 28 30 30 30 32 33 34 34 35 37 41 41 41 41 41 42
4 7 6 4 5 5 9 17 16 15 18 25 32 33 30 29 32 34 34 32 30 29 30 30 30 30 32 35 34 33 34 33 33 35 37 40 42 43 41 38 36 33 31 29 27 24 22 19 17 14 11 9 8 8 11 13 16 19 21 21 20 19 19 19 20 21 22 23 25 26 28 29 30 31 32 33 34 35 34 34 37 40 40 41 41 41
7 12 9 9 10 10 14 19 13 14 27 34 31 31 35 38 38 38 39 39 35 30 29 31 31 31 33 35 35 35 35 35 36 38 40 42 43 43 40 38 36 33 31 28 26 24 22 20 17 14 11 8 7 8 10 13 16 19 20 19 17 17 17 17 18 20 21 22 24 26 27 28 30 31 32 32 33 35 36 36 37 38 39 39 39 39
8 11 10 10 12 12 17 20 10 5 16 28 32 37 45 48 45 41 38 37 34 31 30 32 33 33 34 35 36 36 36 37 38 39 41 44 44 42 40 38 35 33 30 28 26 24 22 20 17 13 10 8 7 8 10 13 16 17 17 16 15 14 15 16 17 18 20 21 23 25 26 27 29 30 32 32 32 32 34 35 36 37 37 37 36 35
9 10 9 8 9 11 15 22 20 12 10 18 29 44 54 52 43 37 35 35 35 36 36 36 35 33 34 36 37 37 37 38 40 41 42 43 42 41 40 38 35 33 30 28 27 25 23 20 17 13 10 8 7 8 10 13 15 15 14 13 13 13 13 14 16 17 19 21 23 24 26 27 28 29 31 32 33 33 32 32 32 33 35 35 35 34
16 18 14 11 14 19 22 27 27 17 12 22 34 41 47 47 40 37 40 43 43 42 42 41 39 36 36 37 37 36 37 38 41 43 43 42 41 40 39 36 34 32 31 29 28 26 23 20 16 13 10 8 7 8 10 12 13 13 12 11 11 12 12 14 15 16 18 20 22 24 25 26 28 29 30 31 33 35 35 34 32 32 33 33 33 34
Wind_Direction
65 52 293 238 229 228 225 188 170 173 166 186 206 221 243 244 272 275 254 276 283 236 264 243 237 260 268 273 263 219 210 213 221 225 222 215 213 211 210 209 208 208 208 205 206 209 209 213 218 234 255 273 295 324 347 354 356 354 352 348 344 342 342 340 338 337 336 335 334 333 332 330 329 328 326 325 326 325 325 326 327 328 329 330 331 333
68 51 253 226 215 208 205 175 141 130 160 200 214 242 266 225 255 279 285 308 305 187 264 251 236 259 259 271 271 218 198 217 220 221 222 217 216 216 213 212 210 209 207 204 207 208 208 212 216 230 248 260 276 320 347 354 357 355 351 347 344 344 342 340 339 338 337 336 335 334 332 329 328 327 326 325 326 327 327 328 329 330 331 332 332 333
25 263 248 226 185 143 120 127 135 156 175 188 189 218 275 239 263 292 307 332 350 165 268 278 262 264 260 267 270 230 200 226 226 222 224 219 216 216 215 214 210 207 205 204 206 207 208 211 214 228 243 251 265 321 348 352 355 353 350 348 345 343 342 340 339 338 337 335 333 331 328 326 325 325 325 326 328 328 329 330 331 332 333 333 332 332
320 253 241 185 141 133 103 67 119 121 215 189 180 195 262 263 280 283 298 331 328 250 268 289 279 265 261 261 269 253 224 233 236 230 229 225 221 220 218 216 212 208 205 204 205 206 206 208 212 226 238 244 265 324 346 350 352 350 349 347 345 343 341 340 339 337 336 333 330 327 324 323 322 323 324 325 327 329 329 329 331 332 333 332 330 330
243 250 162 116 116 144 165 330 146 191 277 242 202 204 242 258 233 233 287 331 324 310 311 321 300 259 240 245 262 276 235 240 243 235 232 230 228 226 223 220 216 211 208 206 204 204 204 205 212 225 231 235 259 319 341 348 349 348 349 346 344 343 341 340 339 336 334 331 327 324 321 320 320 321 323 324 324 326 326 326 327 329 330 330 329 329
262 255 140 123 91 125 160 233 210 186 248 297 230 211 226 243 247 262 326 348 350 332 352 12 326 270 220 239 259 290 277 253 243 230 232 230 226 226 224 222 217 213 211 210 207 204 204 206 213 222 224 228 254 312 338 346 348 347 348 346 344 342 341 339 338 335 333 330 327 325 324 324 324 324 324 325 324 324 325 325 325 327 328 328 327 326
264 349 108 129 133 132 164 243 237 172 146 306 249 199 203 210 241 304 5 8 330 275 293 66 322 274 269 223 253 263 266 264 248 229 236 231 224 222 224 223 217 212 210 210 208 205 204 207 213 219 220 223 253 310 335 344 346 346 345 345 343 341 340 339 336 334 332 330 327 326 326 325 325 325 324 325 326 326 325 325 325 325 327 327 325 323
161 98 59 100 122 136 178 243 230 158 136 245 232 136 122 115 144 169 84 25 240 275 289 169 168 273 278 236 247 258 264 272 265 248 242 229 224 224 224 222 217 213 209 206 204 202 203 208 213 217 218 223 254 309 333 342 343 343 342 343 343 340 338 337 334 333 331 329 327 326 325 324 324 323 323 323 324 325 325 323 323 323 324 325 324 323
152 166 191 154 130 178 205 227 192 158 159 242 206 120 99 99 129 143 100 266 285 5 292 221 148 260 277 245 266 315 257 266 265 254 248 228 224 226 223 220 218 214 209 206 204 203 204 209 214 217 218 227 259 309 331 337 339 340 340 341 341 338 336 334 332 332 331 329 326 325 324 322 323 323 322 322 322 323 324 323 322 323 323 323 323 322
167 187 197 156 158 213 218 233 179 166 193 213 139 94 58 64 71 70 76 48 35 351 269 240 153 218 274 227 175 36 237 251 259 255 252 235 228 226 221 219 217 212 208 206 207 206 207 211 214 217 218 231 265 309 328 333 336 338 338 338 339 337 333 332 332 331 329 327 325 324 324 323 323 324 323 322 322 323 324 323 322 322 322 323 323 322
337 69 168 167 190 192 150 91 132 153 158 120 92 50 18 27 45 44 51 68 47 274 262 236 173 188 277 241 175 186 214 224 243 258 259 242 229 222 219 219 215 210 206 204 205 207 209 211 213 216 219 232 268 308 323 329 334 335 336 336 336 335 333 332 331 330 328 327 326 324 324 324 324 324 324 323 323 324 324 323 322 322 322 322 322 321
343 52 242 236 194 138 103 78 46 49 92 99 73 47 9 338 13 17 357 47 50 255 265 239 174 187 242 243 204 232 247 223 224 251 255 235 218 213 216 218 213 208 204 202 203 204 205 209 211 213 220 236 267 303 318 326 331 333 334 333 333 334 333 331 330 329 328 326 325 324 323 324 325 324 324 324 323 324 324 323 322 322 322 322 322 321
309 232 255 329 194 163 121 78 19 355 40 91 89 75 45 336 353 343 309 48 227 247 257 127 142 215 242 245 240 248 259 250 230 234 245 240 217 212 215 216 211 205 202 201 201 202 204 208 211 213 222 238 266 297 314 324 328 331 332 331 331 333 332 330 329 328 327 324 324 324 324 324 324 324 324 323 323 323 323 323 322 321 322 322 321 321
295 294 296 94 249 189 163 148 199 263 132 148 146 127 127 106 334 277 270 268 267 269 250 133 132 262 271 258 235 232 241 249 248 244 247 249 233 224 221 215 209 203 201 201 201 203 206 209 211 215 224 239 265 294 311 321 326 328 329 329 329 331 331 329 328 327 325 324 324 324 324 324 324 323 323 323 322 322 323 322 321 320 321 321 320 319
244 297 223 182 210 180 180 185 166 143 140 177 159 136 150 152 181 233 240 245 283 302 272 161 148 246 269 257 219 230 247 253 260 258 254 252 242 235 225 213 205 202 200 201 202 204 207 209 211 216 225 241 263 292 310 318 324 326 327 327 328 329 330 328 328 327 325 325 324 324 324 324 324 324 323 322 322 322 322 321 320 320 320 320 319 318
206 266 249 240 133 162 182 194 135 117 113 201 130 115 174 183 173 203 232 215 288 318 283 205 209 229 247 261 215 219 268 256 266 271 256 240 230 220 213 206 202 200 199 200 203 204 206 207 211 217 225 241 263 290 307 315 322 324 325 326 327 328 329 329 328 327 326 325 324 323 324 325 324 324 323 321 321 321 321 321 320 319 319 319 318 317
199 271 276 2 10 162 170 199 148 146 176 165 138 178 215 182 138 146 273 326 71 293 274 262 269 276 311 289 221 163 250 255 271 279 237 217 210 204 206 204 200 199 198 200 202 202 203 205 210 217 226 240 263 289 304 314 320 323 324 324 327 329 329 329 328 326 325 324 324 324 324 325 325 324 323 322 321 321 321 320 320 319 318 319 318 317
188 269 261 136 203 236 81 16 355 23 130 129 180 214 199 125 98 109 264 339 43 255 271 291 281 281 295 290 276 102 235 252 253 248 222 211 204 205 209 205 201 200 198 200 201 201 204 207 212 217 227 244 265 288 301 313 318 321 324 324 327 329 328 328 327 326 325 324 324 324 325 326 325 324 323 322 321 321 321 320 320 319 318 319 319 317
149 261 278 109 228 287 20 42 331 354 88 128 182 213 128 137 153 101 152 243 204 241 271 290 293 279 257 247 273 241 205 234 241 213 203 213 209 212 211 204 201 199 197 198 199 201 204 206 212 218 228 247 267 288 300 312 316 319 323 325 327 329 328 328 327 326 326 324 325 325 326 326 326 325 324 322 321 321 320 321 321 320 320 320 319 317
124 216 275 343 301 307 24 141 190 220 43 88 103 345 35 164 173 163 169 194 174 221 270 302 312 286 253 200 239 230 198 215 223 197 203 215 214 214 208 201 200 198 198 199 199 201 205 207 213 221 231 248 269 288 300 310 315 319 324 325 326 327 326 326 326 326 325 325 326 325 326 326 326 325 324 322 322 321 321 322 322 322 321 320 319 318
104 195 247 327 334 268 193 203 193 188 171 163 210 227 223 163 125 217 221 163 165 218 256 286 287 277 259 157 210 218 198 210 208 196 208 219 219 216 209 203 202 200 199 200 200 202 204 207 213 221 233 250 268 285 299 308 314 321 324 325 325 326 326 326 326 326 325 326 327 326 326 327 327 325 323 322 322 322 323 324 324 323 322 321 320 318
154 186 199 183 246 215 220 235 204 193 182 181 197 198 197 181 141 233 254 215 178 220 219 171 267 270 262 143 197 195 188 210 202 194 206 218 219 216 211 209 205 202 201 200 200 202 204 208 214 221 235 250 267 286 300 307 315 321 323 325 326 326 327 327 327 327 327 327 327 327 328 328 327 326 324 323 323 323 325 326 325 325 323 322 321 318
132 130 183 220 224 218 243 278 262 220 218 211 213 193 182 176 162 193 233 225 174 235 225 126 265 267 256 133 189 190 197 220 200 194 206 219 220 215 212 212 208 204 202 199 200 203 205 209 215 222 236 251 269 288 300 308 315 321 323 325 325 326 328 328 328 328 328 328 328 329 330 329 327 326 324 324 324 325 326 327 327 327 325 323 321 318
109 122 213 261 295 338 330 335 1 22 42 248 240 185 177 203 198 198 214 183 151 227 205 136 255 263 275 88 232 240 267 252 205 202 212 218 218 216 212 211 208 205 201 199 201 204 206 210 216 224 236 252 270 287 299 308 316 321 324 325 325 327 329 329 329 329 329 329 329 330 331 330 328 326 325 325 325 327 328 329 329 327 325 322 319 316
172 172 180 246 296 315 331 343 327 328 252 232 237 190 202 219 203 166 107 134 242 235 196 196 253 258 270 50 344 320 290 273 227 215 220 219 215 214 212 210 208 204 199 199 202 204 206 210 217 224 235 249 267 286 298 309 317 321 323 325 327 329 330 330 330 330 330 330 330 332 332 330 328 326 325 325 327 329 330 330 329 327 324 321 318 315
176 187 170 203 238 245 250 237 213 222 212 225 232 203 212 214 198 189 186 215 243 232 189 213 251 261 267 257 10 289 261 254 253 236 229 227 222 217 213 211 208 202 200 201 201 203 207 211 217 223 234 251 268 288 300 308 316 320 324 327 329 330 330 331 331 331 332 331 332 333 332 330 328 326 326 327 329 331 332 330 328 326 324 321 318 317
152 206 198 211 219 226 244 243 190 137 162 203 214 208 211 212 203 197 210 227 232 203 201 233 246 263 271 264 254 264 254 235 243 241 229 226 223 220 217 214 209 203 201 202 202 204 208 210 215 224 236 254 271 288 298 305 313 320 326 329 331 332 331 332 333 333 333 333 333 333 332 330 329 327 328 330 332 333 332 330 328 326 325 323 321 320
105 229 219 223 226 231 247 249 208 150 204 224 222 215 210 208 198 192 215 226 213 134 243 248 248 258 267 267 263 262 260 246 229 225 226 226 223 221 219 213 206 201 200 201 203 205 207 210 216 226 238 254 271 285 292 303 314 322 329 331 333 333 333 333 334 334 335 334 334 333 331 329 328 328 330 332 333 333 332 331 329 328 327 325 323 322
130 234 232 225 232 241 249 251 236 214 238 246 249 241 214 194 194 200 218 226 212 217 247 256 260 260 263 269 267 262 262 257 242 236 234 233 227 220 213 205 200 199 200 202 204 206 207 211 217 225 236 252 266 278 288 304 316 324 331 334 335 335 335 335 335 335 335 335 334 332 330 329 329 330 333 333 333 334 334 332 331 330 329 327 325 323
155 237 240 225 238 249 247 250 249 246 256 263 261 256 226 191 206 210 221 230 225 232 247 257 264 266 266 268 268 268 270 266 257 246 234 227 220 211 206 201 199 201 201 203 204 206 207 211 216 224 236 250 261 270 286 306 317 326 332 335 337 337 337 337 336 336 336 335 333 332 330 329 330 333 334 334 334 335 335 334 333 332 331 329 327 325
196 234 242 208 240 256 249 245 241 240 250 259 262 261 242 213 225 225 227 234 232 239 248 253 261 266 266 265 268 274 274 264 253 238 222 218 214 207 203 201 201 203 203 203 204 205 206 209 214 222 233 245 255 265 286 307 319 328 333 336 338 338 338 338 336 336 335 334 333 331 330 331 332 334 334 334 336 337 337 336 335 335 334 332 331 329
200 226 248 143 230 256 253 236 221 231 263 263 261 260 247 229 232 234 232 230 226 235 246 251 253 257 262 267 271 272 263 244 236 228 218 217 214 207 203 202 204 205 203 203 204 203 203 207 212 220 230 238 249 263 288 307 320 330 334 336 339 339 339 338 336 335 334 333 333 332 332 333 333 334 335 335 338 339 338 338 337 338 337 335 334 332
182 202 215 165 225 258 260 114 118 82 31 263 255 252 243 230 228 238 243 238 228 228 237 245 244 246 255 266 272 267 249 225 228 226 218 217 215 210 209 209 208 207 205 203 202 200 202 207 210 217 225 232 243 263 291 310 324 332 334 336 339 338 338 337 336 335 333 333 334 333 334 334 334 335 336 337 340 341 340 340 340 341 340 337 335 333
191 206 211 177 214 250 212 104 90 131 233 252 256 233 221 212 212 227 239 240 234 225 226 239 248 255 259 259 259 260 254 240 236 233 229 227 221 215 215 215 212 208 205 202 199 199 202 204 207 213 220 228 240 263 292 313 327 332 333 336 337 337 338 337 335 333 332 333 335 335 334 335 335 336 336 338 342 343 343 342 342 342 342 339 337 335
192 200 201 195 212 237 144 104 175 227 232 265 318 193 202 199 203 220 237 245 241 231 230 240 249 255 257 255 253 257 262 260 250 242 238 234 228 224 220 216 211 207 203 198 196 199 201 201 205 211 216 224 240 265 294 315 327 331 332 334 336 337 337 335 333 332 332 333 335 336 335 336 336 337 338 340 344 346 345 344 343 344 343 340 338 336
186 186 190 194 171 191 178 181 226 247 284 303 287 232 170 160 186 211 250 259 250 231 225 236 243 249 254 256 257 259 265 266 255 243 238 234 231 229 224 218 213 209 204 199 197 198 198 199 206 211 215 225 242 268 295 315 324 329 331 333 335 336 335 333 331 331 332 335 336 337 338 337 337 338 340 343 346 348 348 346 344 345 343 340 338 336
184 175 197 207 190 217 228 222 243 284 305 287 270 226 163 190 187 171 241 268 261 221 207 227 240 247 250 253 254 250 240 260 268 249 238 230 226 226 225 223 218 210 201 196 194 195 196 199 205 210 215 226 244 268 295 316 323 327 331 332 334 335 332 331 330 331 334 337 338 339 339 339 339 340 342 346 349 350 349 347 345 345 343 341 339 337
200 190 202 211 209 218 229 243 253 257 260 262 259 181 169 189 176 154 201 272 270 215 190 214 232 240 246 247 225 157 146 216 280 256 237 225 219 219 218 217 212 202 193 191 190 192 195 199 204 209 215 226 245 271 299 316 322 326 330 333 334 333 330 330 331 333 336 338 339 341 341 341 342 344 345 349 352 352 350 348 346 345 344 342 339 336
215 218 214 215 223 219 219 237 236 231 249 253 232 131 147 144 133 113 112 273 267 204 181 202 220 232 238 210 161 139 134 218 251 254 239 222 212 211 207 201 195 189 188 191 192 193 197 200 203 207 213 225 247 278 302 315 321 326 331 333 333 331 329 330 332 335 338 339 341 343 343 343 345 347 349 351 353 353 351 348 347 347 346 343 340 337
209 220 215 214 226 223 220 233 234 240 257 246 164 147 156 139 124 95 279 260 252 169 180 197 212 226 209 160 156 160 175 209 231 254 238 214 202 202 199 191 186 184 186 188 190 193 197 200 203 208 214 225 250 284 302 313 322 328 332 333 331 330 329 330 334 337 338 340 343 344 344 344 347 349 352 354 354 355 353 350 349 348 347 345 342 340
206 214 207 213 225 224 223 233 242 256 253 217 138 152 155 130 106 173 244 244 213 150 186 194 202 213 188 161 165 190 207 214 226 241 211 193 186 186 186 185 185 186 187 188 190 194 198 201 205 208 213 229 257 285 301 313 324 330 332 331 329 328 329 332 336 339 340 342 345 345 345 347 350 352 355 356 356 356 355 354 352 350 349 348 345 344
195 195 204 218 226 226 230 237 253 269 246 178 147 160 158 138 211 232 227 210 169 179 192 192 199 203 187 180 190 201 208 213 215 202 184 181 180 178 178 181 183 184 187 189 192 195 198 201 204 204 213 238 264 285 302 316 325 329 329 328 328 328 329 334 338 340 341 344 346 347 347 350 354 355 357 359 359 357 357 357 354 353 353 351 349 348
178 169 199 213 208 214 240 228 230 264 219 146 139 161 169 186 233 233 206 159 197 203 197 193 199 199 192 193 198 201 202 201 197 190 180 179 181 180 180 184 186 187 190 191 192 195 197 199 202 206 221 246 267 285 303 318 324 327 328 327 327 328 331 337 340 340 343 345 347 348 350 354 358 359 359 1 2 360 359 359 357 356 356 354 352 351
169 183 205 211 192 173 203 206 216 252 177 147 152 190 207 210 226 233 217 205 208 203 198 197 200 202 201 200 198 197 198 192 186 184 178 178 182 182 182 186 188 190 192 192 193 197 196 197 202 211 228 248 266 286 304 319 323 325 326 325 326 329 334 339 341 341 345 348 348 350 353 358 2 2 1 3 5 3 2 1 0 360 360 358 356 354
195 199 201 207 198 188 208 220 220 221 164 174 191 214 210 213 224 230 220 212 210 207 204 201 201 204 205 203 197 192 193 192 187 185 182 182 183 183 185 188 190 192 193 193 195 196 194 196 205 216 231 246 265 288 305 317 322 323 325 325 326 331 336 340 342 344 349 350 350 352 356 1 5 5 3 5 8 8 6 3 3 4 4 2 359 357
212 208 183 142 208 217 251 256 241 193 180 200 214 226 226 221 224 225 223 221 217 215 212 207 206 206 203 201 197 191 192 194 189 186 186 185 184 185 188 190 190 192 194 194 196 195 193 199 209 217 229 245 266 289 306 316 320 322 323 324 328 334 338 341 344 349 352 351 352 355 358 2 5 7 7 7 9 12 13 8 6 7 8 6 3 1
224 202 197 209 198 190 242 250 236 223 224 221 221 227 233 233 228 223 224 226 224 221 217 213 212 209 203 201 199 195 195 194 188 184 185 185 185 187 191 192 192 193 195 196 195 195 196 203 211 217 227 243 264 289 308 315 318 321 322 324 331 338 340 342 347 351 353 353 354 357 1 4 5 6 10 10 9 12 16 16 12 11 11 10 6 2
192 179 187 220 216 206 235 246 232 220 234 236 229 226 230 233 230 226 226 228 228 226 221 215 211 206 202 202 202 199 195 191 188 187 185 185 188 190 192 194 194 194 194 195 195 197 200 206 212 217 225 241 264 289 306 312 316 319 321 326 335 339 340 344 350 353 354 355 357 359 3 6 5 5 9 13 12 12 14 17 18 17 16 15 10 1
150 164 177 205 216 225 248 252 237 209 247 244 231 226 230 233 230 227 226 225 225 223 217 210 207 207 205 203 201 198 193 190 191 191 188 187 190 192 193 194 195 195 195 196 196 199 203 206 210 215 222 238 263 288 302 310 315 318 321 329 336 340 342 347 352 355 356 357 359 2 5 7 8 6 8 11 14 16 16 18 20 20 19 19 18 8
150 198 194 183 208 225 239 241 231 217 238 243 228 225 230 232 228 222 220 218 218 217 211 203 201 206 207 204 200 198 194 191 192 192 191 190 192 193 194 194 194 195 196 197 198 201 203 206 209 213 220 234 261 286 300 309 314 317 323 331 337 340 345 350 354 357 359 360 1 3 6 8 8 9 9 9 11 13 16 20 24 25 23 21 21 20
196 212 197 184 215 227 228 234 233 220 223 244 240 233 231 229 222 216 217 218 217 215 209 202 198 199 200 201 201 200 198 195 193 193 193 193 194 195 195 195 196 197 198 199 202 203 203 205 208 211 220 235 259 283 298 308 312 318 325 332 337 342 347 353 357 359 2 4 3 5 7 8 8 9 10 11 11 10 10 13 18 24 28 27 24 23